Location: Bemmer
(51.5498°N, 5.6249°E)
Time: 13:07:00
(UTC+00:00)

SL-08 R/B - Pass Details

Date: 03 March 2021
Orbit: 949 x 1019 km, 82.9° (Epoch: 11 April)

Event Time Altitude Azimuth Distance (km) Brightness Sun altitude
Exits shadow 20:11:53 18° 188° (S) 2,243 6.2 -26.7°
Maximum altitude 20:16:51 89° 280° (W) 1,027 4.5 -27.3°
Drops below altitude 10° 20:23:22 10° 10° (N) 2,819 7.1 -28.2°
Sets 20:25:55 0° 11° (N) 3,771 7.8 -28.6°
